Regional Weather Roundup
Issued by NWS Columbia, SC

Home | Current Version | Previous Version | Text Only | Print | Product List | Glossary On
Versions: 1 2 3 4 5 6 7 8 9 10 11 12 13 14 15 16 17 18 19 20 21 22 23 24 25 26 27 28 29 30 31 32 33 34 35 36 37 38 39 40 41 42 43 44 45 46 47 48 49 50
000
ASUS42 KCAE 270510
RWRCAE
REGIONAL WEATHER ROUNDUP
NATIONAL WEATHER SERVICE COLUMBIA SC
100 AM EDT MON APR 27 2015

NOTE: "FAIR" INDICATES FEW OR NO CLOUDS BELOW 12,000 FEET WITH NO
SIGNIFICANT WEATHER AND/OR OBSTRUCTIONS TO VISIBILITY.

NOT ALL STATIONS ARE QUALITY CONTROLLED BY THE NATIONAL
WEATHER SERVICE. USE DATA WITH CAUTION...ESPECIALLY
DEWPOINT OBSERVATIONS.

SCZ001>056-GAZ040-063>065-077-270600-
...UPSTATE SOUTH CAROLINA...

CITY           SKY/WX    TMP DP  RH WIND       PRES   REMARKS
ANDERSON       CLOUDY    55  48  77 E8        29.81R
LIBERTY        CLOUDY    55  51  87 E3        29.81S
SPARTANBURG    FAIR      54  54 100 CALM      29.81S
CLEMSON        CLOUDY    58  49  72 E3        29.82R
GREENVILLE     CLOUDY    54  49  83 E6        29.82R
GREENWOOD      MOCLDY    54  48  80 NE7       29.82R
GREER          CLOUDY    53  51  93 CALM      29.80S
ROCK HILL      CLOUDY    51  50  96 CALM      29.81S
CHESTER        CLOUDY    54  52  94 CALM      29.81F
LAURENS        CLOUDY    54  54 100 E5        29.80F


...CENTRAL SOUTH CAROLINA...

CITY           SKY/WX    TMP DP  RH WIND       PRES   REMARKS
COLUMBIA APT   MOCLDY    56  47  71 NE9       29.79S
COLUMBIA OWENS MOCLDY    55  48  77 MISG      29.81R
DARLINGTON     MOCLDY    52  46  82 N5        29.81S
FLORENCE       CLOUDY    53  48  83 N7        29.79S
MCENTIRE ANGB  PTCLDY    53  49  86 NE3       29.79S
ORANGEBURG     PTCLDY    55  49  80 NE9       29.78R
SUMTER SHAW    MOCLDY    53  48  83 N7        29.78R
NEWBERRY       CLOUDY    52  50  93 NE6       29.83S
AIKEN          FAIR      54  46  76 NE7       29.81R
BARNWELL       FAIR      57  54  88 NE9       29.77R
MANNING        CLOUDY    54  45  71 NE6       29.78R
CAMDEN         MOCLDY    52  48  87 CALM      29.81R
LANCASTER      CLOUDY    50  50 100 CALM      29.81S
WINNSBORO      MOCLDY    52  50  93 E6        29.79F


...EASTERN AND COASTAL SOUTH CAROLINA...

CITY           SKY/WX    TMP DP  RH WIND       PRES   REMARKS
MYRTLE BEACH   CLOUDY    54  48  82 N9        29.78S
N MYRTLE BCH   CLOUDY    53  50  89 N5        29.77R
CONWAY         CLOUDY    52  52 100 CALM      29.77S
MARION         MOCLDY    52  50  93 CALM      29.79S
HARTSVILLE     FAIR      50  46  87 NE3       29.80F
FLORENCE       CLOUDY    53  48  83 N7        29.79S
DARLINGTON     MOCLDY    52  46  82 N5        29.81S
CHARLESTON APT LGT RAIN  58  54  86 NE13      29.75R
MOUNT PLEASANT LGT RAIN  59  55  88 MISG      29.75S
WALTERBORO     CLOUDY    59  54  82 NE12G17   29.76R
BEAUFORT       CLOUDY    63  58  83 NE14      29.72S


...EASTERN GEORGIA...

CITY           SKY/WX    TMP DP  RH WIND       PRES   REMARKS
AUGUSTA BUSH F LGT RAIN  57  51  80 NE9       29.76S
AUGUSTA DANIEL PTCLDY    59  49  69 NE13      29.78R
THOMSON          N/A     59  56  88 CALM      29.83R
WASHINGTON     MOCLDY    61  59  94 CALM      29.80R
CLAXTON        FAIR      72  61  68 NW3       29.69R
SYLVANIA       CLOUDY    61  58  90 NE10G20   29.74R
STATESBORO       N/A     64  60  87 NE9       29.73R
SAVANNAH       CLOUDY    70  61  73 NE14G23   29.70R


...SOUTHERN NORTH CAROLINA...

CITY           SKY/WX    TMP DP  RH WIND       PRES   REMARKS
CHARLOTTE      CLOUDY    52  47  83 CALM      29.82R
MONROE         CLOUDY    51  49  92 CALM      29.81R
WADESBORO      CLOUDY    51  50  95 CALM      29.81R
ROCKINGHAM     CLOUDY    50  48  91 CALM      29.80S
RUTHERFORDTON  CLOUDY    52  50  95 CALM      29.82S
ASHEVILLE      CLOUDY    51  41  68 N5        29.83S

$$


USA.gov is the U.S. government's official web portal to all federal, state and local government web resources and services.